Hourly Data Report for January 13, 2012

HALIFAX STANFIELD INT'L A
NOVA SCOTIA

44°52'48.060" N
63°30'00.050" W
145.40 m
8202250
71395
YHZ

Download Data

Hourly Data (January 2012)
Hourly Data Report for January 13, 2012
TIME
LST
Temp Definition
°C
Dew Point Definition
°C
Rel Hum Definition
%
Precip. Amount Definition
mm

Wind Dir Definition
10's deg

Wind Spd Definition
km/h
Visibility Definition
km
Stn Press Definition
kPa
Hmdx Definition


Wind Chill Definition


Weather Definition


00:00 -0.5 -1.2 95   11 44 1.6 98.83   -8 Snow,Ice Pellets
01:00 0.3 -0.6 94   11 57 9.7 98.66     Rain Showers,Fog
02:00 0.5 0.0 96   11 37 6.4 98.65     Rain,Fog
03:00 0.9 0.5 97   11 35 4.8 98.56     Drizzle,Fog
04:00 1.2 1.1 99   12 30 3.2 98.49     Drizzle,Fog
05:00 1.4 1.4 100   12 26 1.2 98.46     Drizzle,Fog
06:00 1.7 1.7 100   13 20 0.8 98.47     Drizzle,Fog
07:00 2.3 2.3 100   16 20 0.6 98.43     Fog
08:00 4.4 4.4 100   19 32 1.6 98.43     Fog
09:00 5.1 5.1 100   20 37 6.4 98.48     Fog
10:00 5.1 5.1 100   20 32 1.2 98.51     Fog
11:00 5.1 5.1 100   19 26 0.4 98.51     Fog
12:00 5.8 5.8 100   18 30 1.0 98.35     Fog
13:00 6.0 6.0 100   17 20 0.4 98.23     Fog
14:00 5.8 5.8 100   18 20 0.2 98.18     Fog
15:00 5.8 5.8 100   14 13 0.4 98.02     Fog
16:00 7.0 7.0 100   13 22 0.2 97.81     Fog
17:00 6.9 6.9 100   15 13 1.2 97.78     Rain Showers,Fog
18:00 9.7 9.7 100   18 37 1.2 97.48     Fog
19:00 10.4 10.4 100   19 50 4.8 97.36     Fog
20:00 8.4 8.4 100   20 39 4.8 97.42     Fog
21:00 4.7 4.3 97   21 57 24.1 97.45     Mainly Clear
22:00 4.0 0.7 79   21 52 24.1 97.38     Mainly Clear
23:00 3.8 -1.1 70   22 57 24.1 97.31     Mainly Clear

Notes on Data Quality.

Legend

  • E = Estimated
  • M = Missing
  • NA = Not Available*
  • [empty] = Indicates an unobserved value
Date modified: